,,PA_Meas_PMT16A,,PR_Meas_QMR101_102,,RH_Meas_QMH101,,SR_Meas_QMS101,,TA_Meas_QMH101,,GenWind,,GenWind,
time,status,PA,status,PR,status,RH,status,SR,status,TA,status,DirAvg,status,SpdAvg,
2010-10-12, 00:00:04,VALID,918.316,VALID,0,VALID,94.233,VALID,0,VALID,20.5773,VALID,319,VALID,0,
2010-10-12, 00:01:04,VALID,918.327,VALID,0,VALID,94.2864,VALID,0,VALID,20.5984,VALID,319,VALID,0.0683594,
2010-10-12, 00:02:04,VALID,918.332,VALID,0,VALID,94.1644,VALID,0,VALID,20.5984,VALID,319,VALID,0,
2010-10-12, 00:03:04,VALID,918.312,VALID,0,VALID,93.9281,VALID,0,VALID,20.5984,VALID,319,VALID,0,
2010-10-12, 00:04:04,VALID,918.364,VALID,0,VALID,94.0653,VALID,0,VALID,20.6179,VALID,319,VALID,0,
2010-10-12, 00:05:04,VALID,918.339,VALID,0,VALID,94.233,VALID,0,VALID,20.6358,VALID,319,VALID,0,
2010-10-12, 00:06:04,VALID,918.332,VALID,0,VALID,94.477,VALID,0,VALID,20.6358,VALID,319,VALID,0,
2010-10-12, 00:07:04,VALID,918.302,VALID,0,VALID,94.4922,VALID,0,VALID,20.6179,VALID,319,VALID,0.351953,
2010-10-12, 00:08:04,VALID,918.281,VALID,0,VALID,94.5532,VALID,0,VALID,20.6179,VALID,319,VALID,0.0117188,
2010-10-12, 00:09:04,VALID,918.298,VALID,0,VALID,94.2026,VALID,0,VALID,20.5789,VALID,319,VALID,0.294531,
2010-10-12, 00:10:04,VALID,918.237,VALID,0,VALID,94.0501,VALID,0,VALID,20.5399,VALID,319,VALID,0.204688,
2010-10-12, 00:11:04,VALID,918.256,VALID,0,VALID,94.2483,VALID,0,VALID,20.4993,VALID,319,VALID,0.358203,
2010-10-12, 00:12:04,VALID,918.215,VALID,0,VALID,94.6066,VALID,0.107441,VALID,20.5009,VALID,319,VALID,0.186719,
2010-10-12, 00:13:04,VALID,918.202,VALID,0,VALID,94.7591,VALID,0,VALID,20.5009,VALID,319,VALID,0.389453,
2010-10-12, 00:14:04,VALID,918.17,VALID,0,VALID,94.66,VALID,0,VALID,20.4423,VALID,319,VALID,0.535547,
2010-10-12, 00:15:04,VALID,918.162,VALID,0,VALID,94.7514,VALID,0,VALID,20.4228,VALID,319,VALID,0.664063,
2010-10-12, 00:16:04,VALID,918.156,VALID,0,VALID,94.881,VALID,0,VALID,20.4423,VALID,319,VALID,0.639844,
2010-10-12, 00:17:04,VALID,918.164,VALID,0,VALID,94.8429,VALID,0,VALID,20.4423,VALID,319,VALID,0.557031,
2010-10-12, 00:18:04,VALID,918.123,VALID,0,VALID,94.7286,VALID,0,VALID,20.4228,VALID,319,VALID,0.501953,
2010-10-12, 00:19:04,VALID,918.118,VALID,0,VALID,94.7514,VALID,0.107441,VALID,20.4423,VALID,319,VALID,0.823828,
2010-10-12, 00:20:04,VALID,918.107,VALID,0,VALID,94.7743,VALID,0,VALID,20.4423,VALID,319,VALID,0.683984,
2010-10-12, 00:21:04,VALID,918.124,VALID,0,VALID,94.6523,VALID,0,VALID,20.4423,VALID,319,VALID,0.548437,
2010-10-12, 00:22:04,VALID,918.057,VALID,0,VALID,94.3703,VALID,0,VALID,20.4618,VALID,319,VALID,0.311719,
2010-10-12, 00:23:04,VALID,918.004,VALID,0,VALID,93.9357,VALID,0,VALID,20.4423,VALID,319,VALID,0.460938,
2010-10-12, 00:24:04,VALID,917.962,VALID,0,VALID,93.5317,VALID,0,VALID,20.4423,VALID,319,VALID,0.328906,
2010-10-12, 00:25:04,VALID,917.921,VALID,0,VALID,93.5393,VALID,0,VALID,20.4618,VALID,319,VALID,0.355859,
2010-10-12, 00:26:04,VALID,917.874,VALID,0,VALID,93.4783,VALID,0,VALID,20.4423,VALID,319,VALID,0.426953,
2010-10-12, 00:27:04,VALID,917.885,VALID,0,VALID,93.4707,VALID,0,VALID,20.4033,VALID,319,VALID,0.352734,
2010-10-12, 00:28:04,VALID,917.808,VALID,0,VALID,93.4097,VALID,0,VALID,20.3838,VALID,319,VALID,0.460938,
2010-10-12, 00:29:04,VALID,917.807,VALID,0,VALID,93.5393,VALID,0,VALID,20.3838,VALID,319,VALID,0.444141,
2010-10-12, 00:30:04,VALID,917.763,VALID,0,VALID,93.6765,VALID,0,VALID,20.3253,VALID,319,VALID,0.646484,
2010-10-12, 00:31:04,VALID,917.744,VALID,0,VALID,93.7375,VALID,0,VALID,20.3058,VALID,319,VALID,0.733203,
2010-10-12, 00:32:04,VALID,917.733,VALID,0,VALID,93.8747,VALID,0,VALID,20.2863,VALID,319,VALID,0.796875,
2010-10-12, 00:33:04,VALID,917.709,VALID,0,VALID,94.1949,VALID,0,VALID,20.2668,VALID,319,VALID,0.405859,
2010-10-12, 00:34:04,VALID,917.664,VALID,0,VALID,94.416,VALID,0,VALID,20.2473,VALID,319,VALID,0.748828,
2010-10-12, 00:35:04,VALID,917.637,VALID,0,VALID,94.66,VALID,0,VALID,20.1888,VALID,319,VALID,0.721484,
2010-10-12, 00:36:04,VALID,917.566,VALID,0,VALID,94.881,VALID,0.107441,VALID,20.1108,VALID,319,VALID,0.811328,
2010-10-12, 00:37:04,VALID,917.598,VALID,0,VALID,95.0945,VALID,0,VALID,20.0718,VALID,319,VALID,0.817187,
2010-10-12, 00:38:04,VALID,917.551,VALID,0,VALID,95.3003,VALID,0,VALID,20.0523,VALID,319,VALID,0.738281,
2010-10-12, 00:39:04,VALID,917.514,VALID,0,VALID,95.4299,VALID,0,VALID,20.0328,VALID,319,VALID,0.664063,
2010-10-12, 00:40:04,VALID,917.511,VALID,0,VALID,95.5138,VALID,0,VALID,19.9938,VALID,319,VALID,0.541406,
2010-10-12, 00:41:04,VALID,917.477,VALID,0,VALID,95.5519,VALID,0,VALID,19.9758,VALID,319,VALID,0.529688,
2010-10-12, 00:42:04,VALID,917.495,VALID,0,VALID,95.651,VALID,0,VALID,19.9353,VALID,319,VALID,0.690234,
2010-10-12, 00:43:04,VALID,917.466,VALID,0,VALID,95.7196,VALID,0,VALID,19.8963,VALID,319,VALID,0.68125,
2010-10-12, 00:44:04,VALID,917.448,VALID,0,VALID,95.7882,VALID,0,VALID,19.8363,VALID,319,VALID,0.656641,
2010-10-12, 00:45:04,VALID,917.471,VALID,0,VALID,95.8568,VALID,0,VALID,19.8378,VALID,319,VALID,0.718359,
2010-10-12, 00:46:04,VALID,917.47,VALID,0,VALID,95.9331,VALID,0,VALID,19.7988,VALID,319,VALID,0.726953,
2010-10-12, 00:47:04,VALID,917.499,VALID,0,VALID,95.9941,VALID,0,VALID,19.7793,VALID,319,VALID,0.582812,
2010-10-12, 00:48:04,VALID,917.464,VALID,0,VALID,96.0398,VALID,0,VALID,19.7598,VALID,319,VALID,0.651172,
2010-10-12, 00:49:04,VALID,917.459,VALID,0,VALID,96.0932,VALID,0,VALID,19.7403,VALID,319,VALID,0.902734,
2010-10-12, 00:50:04,VALID,917.437,VALID,0,VALID,96.1694,VALID,0,VALID,19.7208,VALID,319,VALID,0.776172,
2010-10-12, 00:51:04,VALID,917.407,VALID,0,VALID,96.2151,VALID,0,VALID,19.7418,VALID,319,VALID,0.623047,
2010-10-12, 00:52:04,VALID,917.383,VALID,0,VALID,96.2609,VALID,0,VALID,19.6818,VALID,319,VALID,0.797266,
2010-10-12, 00:53:04,VALID,917.343,VALID,0,VALID,96.3142,VALID,0,VALID,19.6833,VALID,319,VALID,0.955859,
2010-10-12, 00:54:04,VALID,917.285,VALID,0,VALID,96.3524,VALID,0,VALID,19.6818,VALID,319,VALID,0.928125,
2010-10-12, 00:55:04,VALID,917.255,VALID,0,VALID,96.3752,VALID,0,VALID,19.6623,VALID,319,VALID,1.06953,
2010-10-12, 00:56:04,VALID,917.203,VALID,0,VALID,96.4591,VALID,0,VALID,19.6818,VALID,319,VALID,0.963672,
2010-10-12, 00:57:04,VALID,917.185,VALID,0,VALID,96.5124,VALID,0,VALID,19.6818,VALID,319,VALID,1.03086,
2010-10-12, 00:58:04,VALID,917.163,VALID,0,VALID,96.5201,VALID,0,VALID,19.6818,VALID,319,VALID,0.982031,
2010-10-12, 00:59:04,VALID,917.151,VALID,0,VALID,96.5734,VALID,0,VALID,19.7013,VALID,319,VALID,0.669141,
2010-10-12, 01:00:04,VALID,917.138,VALID,0,VALID,96.5734,VALID,0,VALID,19.6833,VALID,319,VALID,0.894922,
2010-10-12, 01:01:04,VALID,917.132,VALID,0,VALID,96.5887,VALID,0,VALID,19.6623,VALID,319,VALID,0.798047,
2010-10-12, 01:02:04,VALID,917.156,VALID,0,VALID,96.6039,VALID,0,VALID,19.6623,VALID,319,VALID,0.748828,
2010-10-12, 01:03:04,VALID,917.189,VALID,0,VALID,96.5811,VALID,0,VALID,19.7028,VALID,319,VALID,0.495313,
2010-10-12, 01:04:04,VALID,917.196,VALID,0,VALID,96.5887,VALID,0,VALID,19.7028,VALID,319,VALID,0.676172,
2010-10-12, 01:05:04,VALID,917.217,VALID,0,VALID,96.5887,VALID,0,VALID,19.6623,VALID,319,VALID,0.782812,
2010-10-12, 01:06:04,VALID,917.229,VALID,0,VALID,96.5734,VALID,0,VALID,19.6638,VALID,319,VALID,0.526563,
2010-10-12, 01:07:04,VALID,917.213,VALID,0,VALID,96.5734,VALID,0,VALID,19.6638,VALID,319,VALID,0.747266,
2010-10-12, 01:08:04,VALID,917.221,VALID,0,VALID,96.5734,VALID,0,VALID,19.6638,VALID,318,VALID,0.471484,
2010-10-12, 01:09:04,VALID,917.225,VALID,0,VALID,96.5811,VALID,0,VALID,19.6233,VALID,318,VALID,0.907812,
2010-10-12, 01:10:04,VALID,917.208,VALID,0,VALID,96.6115,VALID,0,VALID,19.6443,VALID,194,VALID,0.907422,
2010-10-12, 01:11:04,VALID,917.226,VALID,0,VALID,96.5887,VALID,0,VALID,19.6248,VALID,194,VALID,0.785156,
2010-10-12, 01:12:04,VALID,917.189,VALID,0,VALID,96.6344,VALID,0,VALID,19.5843,VALID,194,VALID,0.812891,
2010-10-12, 01:13:04,VALID,917.123,VALID,0,VALID,96.6725,VALID,0,VALID,19.6248,VALID,193,VALID,1.05781,
2010-10-12, 01:14:04,VALID,917.129,VALID,0,VALID,96.7411,VALID,0,VALID,19.6233,VALID,148,VALID,1.00352,
2010-10-12, 01:15:04,VALID,917.107,VALID,0,VALID,96.764,VALID,0,VALID,19.6638,VALID,148,VALID,0.718359,
2010-10-12, 01:16:04,VALID,917.093,VALID,0,VALID,96.7716,VALID,0,VALID,19.6428,VALID,148,VALID,0.825,
2010-10-12, 01:17:04,VALID,917.103,VALID,0,VALID,96.7793,VALID,0,VALID,19.6638,VALID,148,VALID,0.533594,
2010-10-12, 01:18:04,VALID,917.081,VALID,0,VALID,96.7716,VALID,0,VALID,19.6233,VALID,148,VALID,0.459766,
2010-10-12, 01:19:04,VALID,917.068,VALID,0,VALID,96.8174,VALID,0,VALID,19.6638,VALID,148,VALID,0.779297,
2010-10-12, 01:20:04,VALID,917.088,VALID,0,VALID,96.8326,VALID,0,VALID,19.6443,VALID,148,VALID,0.804297,
2010-10-12, 01:21:04,VALID,917.055,VALID,0,VALID,96.825,VALID,0,VALID,19.6443,VALID,148,VALID,1.00547,
2010-10-12, 01:22:04,VALID,917.063,VALID,0,VALID,96.8403,VALID,0,VALID,19.6638,VALID,148,VALID,0.551562,
2010-10-12, 01:23:04,VALID,917.038,VALID,0,VALID,96.8555,VALID,0,VALID,19.6428,VALID,148,VALID,1.08594,
2010-10-12, 01:24:04,VALID,917.007,VALID,0,VALID,96.8631,VALID,0,VALID,19.6623,VALID,148,VALID,0.989062,
2010-10-12, 01:25:04,VALID,917.006,VALID,0,VALID,96.8479,VALID,0,VALID,19.6443,VALID,148,VALID,0.778516,
2010-10-12, 01:26:04,VALID,916.98,VALID,0,VALID,96.8555,VALID,0,VALID,19.6248,VALID,148,VALID,0.733203,
2010-10-12, 01:27:04,VALID,917.008,VALID,0,VALID,96.886,VALID,0,VALID,19.6248,VALID,148,VALID,0.644531,
2010-10-12, 01:28:04,VALID,916.988,VALID,0,VALID,96.8936,VALID,0,VALID,19.6248,VALID,148,VALID,0.735156,
2010-10-12, 01:29:04,VALID,917.017,VALID,0,VALID,96.9089,VALID,0,VALID,19.6443,VALID,148,VALID,0.516797,
2010-10-12, 01:30:04,VALID,917.009,VALID,0,VALID,96.8936,VALID,0,VALID,19.6248,VALID,148,VALID,0.472266,
2010-10-12, 01:31:04,VALID,917.006,VALID,0,VALID,96.9165,VALID,0,VALID,19.6248,VALID,148,VALID,0.226953,
2010-10-12, 01:32:04,VALID,917.008,VALID,0,VALID,96.8784,VALID,0,VALID,19.6053,VALID,148,VALID,0.273828,
2010-10-12, 01:33:04,VALID,916.985,VALID,0,VALID,96.9012,VALID,0,VALID,19.5843,VALID,148,VALID,0,
2010-10-12, 01:34:04,VALID,916.924,VALID,0,VALID,96.886,VALID,0,VALID,19.5453,VALID,148,VALID,0.313281,
2010-10-12, 01:35:04,VALID,916.925,VALID,0,VALID,96.9089,VALID,0,VALID,19.5453,VALID,148,VALID,0.485938,
2010-10-12, 01:36:04,VALID,916.919,VALID,0,VALID,96.9165,VALID,0,VALID,19.5468,VALID,148,VALID,0.155859,
2010-10-12, 01:37:04,VALID,916.87,VALID,0,VALID,96.9394,VALID,0,VALID,19.5468,VALID,148,VALID,0.55,
2010-10-12, 01:38:04,VALID,916.835,VALID,0,VALID,96.9241,VALID,0,VALID,19.5468,VALID,148,VALID,0.810547,
2010-10-12, 01:39:04,VALID,916.813,VALID,0,VALID,96.9394,VALID,0,VALID,19.5468,VALID,148,VALID,0.514063,
2010-10-12, 01:40:04,VALID,916.814,VALID,0,VALID,96.9165,VALID,0,VALID,19.5273,VALID,148,VALID,0.696484,
2010-10-12, 01:41:04,VALID,916.833,VALID,0,VALID,96.886,VALID,0,VALID,19.5678,VALID,148,VALID,0.3125,
2010-10-12, 01:42:04,VALID,916.815,VALID,0,VALID,96.8479,VALID,0,VALID,19.5273,VALID,148,VALID,0.610937,
2010-10-12, 01:43:04,VALID,916.82,VALID,0,VALID,96.8479,VALID,0,VALID,19.5078,VALID,148,VALID,0.692578,
2010-10-12, 01:44:04,VALID,916.834,VALID,0,VALID,96.825,VALID,0,VALID,19.5273,VALID,148,VALID,0.699219,
2010-10-12, 01:45:04,VALID,916.817,VALID,0,VALID,96.7945,VALID,0,VALID,19.5273,VALID,148,VALID,0.770312,
2010-10-12, 01:46:04,VALID,916.834,VALID,0,VALID,96.7564,VALID,0,VALID,19.5078,VALID,148,VALID,0.803125,
2010-10-12, 01:47:04,VALID,916.836,VALID,0,VALID,96.7259,VALID,0,VALID,19.5078,VALID,148,VALID,0.863281,
2010-10-12, 01:48:04,VALID,916.805,VALID,0,VALID,96.6573,VALID,0,VALID,19.5078,VALID,148,VALID,0.936328,
2010-10-12, 01:49:04,VALID,916.83,VALID,0,VALID,96.5429,VALID,0,VALID,19.5273,VALID,148,VALID,1.23789,
2010-10-12, 01:50:04,VALID,916.797,VALID,0,VALID,96.4667,VALID,0,VALID,19.5468,VALID,147,VALID,1.04883,
2010-10-12, 01:51:04,VALID,916.829,VALID,0,VALID,96.3371,VALID,0,VALID,19.5468,VALID,147,VALID,1.04141,
2010-10-12, 01:52:04,VALID,916.823,VALID,0,VALID,96.2151,VALID,0,VALID,19.5078,VALID,147,VALID,0.769141,
2010-10-12, 01:53:04,VALID,916.826,VALID,0,VALID,96.055,VALID,0,VALID,19.5273,VALID,147,VALID,0.693359,
2010-10-12, 01:54:04,VALID,916.831,VALID,0,VALID,95.9636,VALID,0,VALID,19.4883,VALID,147,VALID,0.543359,
2010-10-12, 01:55:04,VALID,916.805,VALID,0,VALID,95.9026,VALID,0,VALID,19.4883,VALID,147,VALID,0.456641,
2010-10-12, 01:56:04,VALID,916.79,VALID,0,VALID,95.8721,VALID,0,VALID,19.4688,VALID,147,VALID,0.454297,
2010-10-12, 01:57:04,VALID,916.762,VALID,0,VALID,95.8721,VALID,0,VALID,19.4688,VALID,147,VALID,0.619922,
2010-10-12, 01:58:04,VALID,916.715,VALID,0,VALID,95.9331,VALID,0,VALID,19.4493,VALID,147,VALID,0.733203,
2010-10-12, 01:59:04,VALID,916.752,VALID,0,VALID,95.9864,VALID,0,VALID,19.4298,VALID,147,VALID,0.321484,
2010-10-12, 02:00:04,VALID,916.726,VALID,0,VALID,96.0245,VALID,0,VALID,19.4493,VALID,147,VALID,0.399219,
2010-10-12, 02:01:04,VALID,916.721,VALID,0,VALID,96.0703,VALID,0,VALID,19.4298,VALID,147,VALID,0.196094,
2010-10-12, 02:02:04,VALID,916.716,VALID,0,VALID,96.1084,VALID,0,VALID,19.4298,VALID,147,VALID,0,
2010-10-12, 02:03:04,VALID,916.724,VALID,0,VALID,96.1389,VALID,0,VALID,19.4298,VALID,147,VALID,0,
2010-10-12, 02:04:04,VALID,916.7,VALID,0,VALID,96.1541,VALID,0,VALID,19.4103,VALID,147,VALID,0.4125,
2010-10-12, 02:05:04,VALID,916.733,VALID,0,VALID,96.1923,VALID,0,VALID,19.3908,VALID,147,VALID,0.60625,
2010-10-12, 02:06:04,VALID,916.686,VALID,0,VALID,96.2533,VALID,0,VALID,19.4103,VALID,147,VALID,0.759766,
2010-10-12, 02:07:04,VALID,916.697,VALID,0,VALID,96.3219,VALID,0,VALID,19.3908,VALID,147,VALID,0.991016,
2010-10-12, 02:08:04,VALID,916.678,VALID,0,VALID,96.3142,VALID,0,VALID,19.3713,VALID,147,VALID,1.09922,
2010-10-12, 02:09:04,VALID,916.637,VALID,0,VALID,96.3829,VALID,0,VALID,19.3893,VALID,147,VALID,1.24531,
2010-10-12, 02:10:04,VALID,916.629,VALID,0,VALID,96.4133,VALID,0,VALID,19.3713,VALID,147,VALID,0.894141,
2010-10-12, 02:11:04,VALID,916.594,VALID,0,VALID,96.4286,VALID,0,VALID,19.3503,VALID,147,VALID,0.98125,
2010-10-12, 02:12:04,VALID,916.599,VALID,0,VALID,96.4515,VALID,0,VALID,19.3518,VALID,147,VALID,0.860937,
2010-10-12, 02:13:04,VALID,916.614,VALID,0,VALID,96.4286,VALID,0,VALID,19.3308,VALID,147,VALID,0.653125,
2010-10-12, 02:14:04,VALID,916.612,VALID,0,VALID,96.4819,VALID,0,VALID,19.3113,VALID,147,VALID,0.863281,
2010-10-12, 02:15:04,VALID,916.667,VALID,0,VALID,96.4743,VALID,0.107441,VALID,19.3308,VALID,147,VALID,0.742969,
2010-10-12, 02:16:04,VALID,916.665,VALID,0,VALID,96.4743,VALID,0,VALID,19.2918,VALID,147,VALID,0.779297,
2010-10-12, 02:17:04,VALID,916.636,VALID,0,VALID,96.5429,VALID,0.107441,VALID,19.3503,VALID,147,VALID,1.34336,
2010-10-12, 02:18:04,VALID,916.654,VALID,0,VALID,96.5201,VALID,0.107441,VALID,19.3308,VALID,147,VALID,1.1043,
2010-10-12, 02:19:04,VALID,916.671,VALID,0,VALID,96.5353,VALID,0,VALID,19.3698,VALID,147,VALID,1.08477,
2010-10-12, 02:20:04,VALID,916.668,VALID,0,VALID,96.4819,VALID,0,VALID,19.3893,VALID,147,VALID,0.824609,
2010-10-12, 02:21:04,VALID,916.649,VALID,0,VALID,96.4743,VALID,0.107441,VALID,19.4088,VALID,147,VALID,0.854297,
2010-10-12, 02:22:04,VALID,916.646,VALID,0,VALID,96.3905,VALID,0,VALID,19.4283,VALID,147,VALID,0.809766,
2010-10-12, 02:23:04,VALID,916.656,VALID,0,VALID,96.2456,VALID,0.107441,VALID,19.3879,VALID,147,VALID,0.823047,
2010-10-12, 02:24:04,VALID,916.619,VALID,0,VALID,96.177,VALID,0.107441,VALID,19.3893,VALID,147,VALID,0.779297,
2010-10-12, 02:25:04,VALID,916.62,VALID,0,VALID,96.1313,VALID,0,VALID,19.3893,VALID,146,VALID,0.695313,
2010-10-12, 02:26:04,VALID,916.609,VALID,0,VALID,96.2304,VALID,0,VALID,19.4088,VALID,146,VALID,0.708203,
2010-10-12, 02:27:04,VALID,916.648,VALID,0,VALID,96.2533,VALID,0.107441,VALID,19.4283,VALID,146,VALID,0.644922,
2010-10-12, 02:28:04,VALID,916.592,VALID,0,VALID,96.2228,VALID,0,VALID,19.4103,VALID,147,VALID,1.02734,
2010-10-12, 02:29:04,VALID,916.596,VALID,0,VALID,96.1846,VALID,0,VALID,19.4298,VALID,147,VALID,1.02227,
2010-10-12, 02:30:04,VALID,916.551,VALID,0,VALID,96.1084,VALID,0,VALID,19.4493,VALID,147,VALID,1.03789,
2010-10-12, 02:31:04,VALID,916.547,VALID,0,VALID,96.0855,VALID,0,VALID,19.4493,VALID,147,VALID,0.855469,
2010-10-12, 02:32:04,VALID,916.548,VALID,0,VALID,96.055,VALID,0,VALID,19.4493,VALID,146,VALID,0.34375,
2010-10-12, 02:33:04,VALID,916.499,VALID,0,VALID,96.0474,VALID,0,VALID,19.4493,VALID,146,VALID,0.476953,
2010-10-12, 02:34:04,VALID,916.519,VALID,0,VALID,96.0398,VALID,0,VALID,19.4688,VALID,146,VALID,0.389844,
2010-10-12, 02:35:04,VALID,916.501,VALID,0,VALID,96.0017,VALID,0,VALID,19.4688,VALID,146,VALID,0.473828,
2010-10-12, 02:36:04,VALID,916.498,VALID,0,VALID,95.9559,VALID,0,VALID,19.4493,VALID,146,VALID,0.887109,
2010-10-12, 02:37:04,VALID,916.489,VALID,0,VALID,95.9102,VALID,0,VALID,19.4883,VALID,146,VALID,0.873828,
2010-10-12, 02:38:04,VALID,916.441,VALID,0,VALID,95.8263,VALID,0,VALID,19.4883,VALID,146,VALID,1.00859,
2010-10-12, 02:39:04,VALID,916.463,VALID,0,VALID,95.7577,VALID,0,VALID,19.5273,VALID,146,VALID,0.815234,
2010-10-12, 02:40:04,VALID,916.44,VALID,0,VALID,95.6662,VALID,0,VALID,19.5483,VALID,145,VALID,0.673047,
2010-10-12, 02:41:04,VALID,916.406,VALID,0,VALID,95.5671,VALID,0,VALID,19.5468,VALID,145,VALID,0.523438,
2010-10-12, 02:42:04,VALID,916.402,VALID,0,VALID,95.4452,VALID,0,VALID,19.5663,VALID,145,VALID,0.733594,
2010-10-12, 02:43:04,VALID,916.385,VALID,0,VALID,95.3766,VALID,0,VALID,19.5663,VALID,145,VALID,1.22578,
2010-10-12, 02:44:04,VALID,916.368,VALID,0,VALID,95.3232,VALID,0,VALID,19.5663,VALID,115,VALID,1.23984,
2010-10-12, 02:45:04,VALID,916.364,VALID,0,VALID,95.2546,VALID,0,VALID,19.5858,VALID,66,VALID,1.11445,
2010-10-12, 02:46:04,VALID,916.351,VALID,0,VALID,95.2775,VALID,0,VALID,19.5858,VALID,66,VALID,1.03555,
2010-10-12, 02:47:04,VALID,916.301,VALID,0,VALID,95.3613,VALID,0,VALID,19.5663,VALID,66,VALID,0.742188,
2010-10-12, 02:48:04,VALID,916.288,VALID,0,VALID,95.468,VALID,0,VALID,19.5663,VALID,66,VALID,0.857422,
2010-10-12, 02:49:04,VALID,916.25,VALID,0,VALID,95.5519,VALID,0,VALID,19.5273,VALID,66,VALID,0.8,
2010-10-12, 02:50:04,VALID,916.227,VALID,0,VALID,95.5595,VALID,0,VALID,19.5273,VALID,66,VALID,1.03281,
2010-10-12, 02:51:04,VALID,916.25,VALID,0,VALID,95.5062,VALID,0,VALID,19.5483,VALID,66,VALID,0.880859,
2010-10-12, 02:52:04,VALID,916.231,VALID,0,VALID,95.4528,VALID,0,VALID,19.5468,VALID,66,VALID,0.720703,
2010-10-12, 02:53:04,VALID,916.241,VALID,0,VALID,95.4757,VALID,0,VALID,19.5273,VALID,66,VALID,0.844531,
2010-10-12, 02:54:04,VALID,916.256,VALID,0,VALID,95.4909,VALID,0,VALID,19.5468,VALID,66,VALID,0.441406,
2010-10-12, 02:55:04,VALID,916.257,VALID,0,VALID,95.5214,VALID,0,VALID,19.5273,VALID,66,VALID,0.43125,
2010-10-12, 02:56:04,VALID,916.28,VALID,0,VALID,95.5367,VALID,0,VALID,19.5273,VALID,66,VALID,0.458984,
2010-10-12, 02:57:04,VALID,916.3,VALID,0,VALID,95.5824,VALID,0,VALID,19.5273,VALID,66,VALID,0.709375,
2010-10-12, 02:58:04,VALID,916.288,VALID,0,VALID,95.6053,VALID,0,VALID,19.5273,VALID,66,VALID,0.890625,
2010-10-12, 02:59:04,VALID,916.306,VALID,0,VALID,95.6281,VALID,0,VALID,19.5273,VALID,66,VALID,0.310547,
2010-10-12, 03:00:04,VALID,916.286,VALID,0,VALID,95.6967,VALID,0,VALID,19.5273,VALID,66,VALID,0.0710938,
2010-10-12, 03:01:04,VALID,916.259,VALID,0,VALID,95.7882,VALID,0,VALID,19.5468,VALID,66,VALID,0.0859375,
2010-10-12, 03:02:04,VALID,916.289,VALID,0,VALID,95.8797,VALID,0,VALID,19.5663,VALID,66,VALID,0.0121094,
2010-10-12, 03:03:04,VALID,916.27,VALID,0,VALID,95.8721,VALID,0,VALID,19.5468,VALID,66,VALID,0.269531,
2010-10-12, 03:04:04,VALID,916.261,VALID,0,VALID,95.7958,VALID,0,VALID,19.5273,VALID,66,VALID,0.415625,
2010-10-12, 03:05:04,VALID,916.25,VALID,0,VALID,95.8111,VALID,0,VALID,19.4883,VALID,66,VALID,0.292188,
2010-10-12, 03:06:04,VALID,916.237,VALID,0,VALID,95.834,VALID,0,VALID,19.4883,VALID,66,VALID,0.247266,
2010-10-12, 03:07:04,VALID,916.241,VALID,0,VALID,95.9102,VALID,0,VALID,19.5078,VALID,66,VALID,0,
2010-10-12, 03:08:04,VALID,916.205,VALID,0,VALID,95.9559,VALID,0,VALID,19.5078,VALID,66,VALID,0,
2010-10-12, 03:09:04,VALID,916.205,VALID,0,VALID,96.0245,VALID,0,VALID,19.5273,VALID,66,VALID,0.289844,
2010-10-12, 03:10:04,VALID,916.221,VALID,0,VALID,96.0779,VALID,0,VALID,19.5258,VALID,66,VALID,0.295312,
2010-10-12, 03:11:04,VALID,916.224,VALID,0,VALID,96.0474,VALID,0,VALID,19.5258,VALID,66,VALID,0.167187,
2010-10-12, 03:12:04,VALID,916.208,VALID,0,VALID,95.9407,VALID,0,VALID,19.5273,VALID,66,VALID,0,
2010-10-12, 03:13:04,VALID,916.208,VALID,0,VALID,95.9407,VALID,0,VALID,19.5048,VALID,66,VALID,0.182812,
2010-10-12, 03:14:04,VALID,916.217,VALID,0,VALID,95.9026,VALID,0,VALID,19.5273,VALID,66,VALID,0.295312,
2010-10-12, 03:15:04,VALID,916.228,VALID,0,VALID,95.9636,VALID,0,VALID,19.5063,VALID,66,VALID,0.169531,
2010-10-12, 03:16:04,VALID,916.214,VALID,0,VALID,95.9864,VALID,0,VALID,19.5063,VALID,66,VALID,0.328906,
2010-10-12, 03:17:04,VALID,916.21,VALID,0,VALID,95.9941,VALID,0.107441,VALID,19.5063,VALID,66,VALID,0.441797,
2010-10-12, 03:18:04,VALID,916.202,VALID,0,VALID,95.9559,VALID,0,VALID,19.5063,VALID,66,VALID,0.645312,
2010-10-12, 03:19:04,VALID,916.209,VALID,0,VALID,95.9254,VALID,0,VALID,19.4868,VALID,66,VALID,0.636328,
2010-10-12, 03:20:04,VALID,916.204,VALID,0,VALID,95.9102,VALID,0,VALID,19.4868,VALID,66,VALID,0.532422,
2010-10-12, 03:21:04,VALID,916.252,VALID,0,VALID,95.9254,VALID,0,VALID,19.4868,VALID,66,VALID,0.621875,
2010-10-12, 03:22:04,VALID,916.222,VALID,0,VALID,95.9102,VALID,0,VALID,19.4868,VALID,66,VALID,0.909375,
2010-10-12, 03:23:04,VALID,916.197,VALID,0,VALID,95.9407,VALID,0,VALID,19.4868,VALID,66,VALID,1.05469,
2010-10-12, 03:24:04,VALID,916.188,VALID,0,VALID,96.0017,VALID,0.107441,VALID,19.4868,VALID,66,VALID,0.976172,
2010-10-12, 03:25:04,VALID,916.168,VALID,0,VALID,96.0855,VALID,0,VALID,19.4673,VALID,66,VALID,0.911719,
2010-10-12, 03:26:04,VALID,916.167,VALID,0,VALID,96.1541,VALID,0,VALID,19.4673,VALID,66,VALID,0.600391,
2010-10-12, 03:27:04,VALID,916.13,VALID,0,VALID,96.1694,VALID,0.107441,VALID,19.4268,VALID,66,VALID,0.630859,
2010-10-12, 03:28:04,VALID,916.134,VALID,0,VALID,96.2151,VALID,0,VALID,19.4298,VALID,66,VALID,0.774609,
2010-10-12, 03:29:04,VALID,916.157,VALID,0,VALID,96.2761,VALID,0,VALID,19.4298,VALID,66,VALID,0.573438,
2010-10-12, 03:30:04,VALID,916.122,VALID,0,VALID,96.3295,VALID,0,VALID,19.4298,VALID,66,VALID,0.366406,
2010-10-12, 03:31:04,VALID,916.124,VALID,0,VALID,96.3752,VALID,0,VALID,19.4298,VALID,66,VALID,0.564844,
2010-10-12, 03:32:04,VALID,916.136,VALID,0,VALID,96.3371,VALID,0,VALID,19.3908,VALID,66,VALID,0.450391,
2010-10-12, 03:33:04,VALID,916.105,VALID,0,VALID,96.3829,VALID,0,VALID,19.3908,VALID,66,VALID,0.470703,
2010-10-12, 03:34:04,VALID,916.146,VALID,0,VALID,96.4133,VALID,0,VALID,19.3503,VALID,66,VALID,0.372656,
2010-10-12, 03:35:04,VALID,916.142,VALID,0,VALID,96.4438,VALID,0,VALID,19.3518,VALID,66,VALID,0.466797,
2010-10-12, 03:36:04,VALID,916.124,VALID,0,VALID,96.4896,VALID,0,VALID,19.3323,VALID,66,VALID,0.613281,
2010-10-12, 03:37:04,VALID,916.103,VALID,0,VALID,96.4896,VALID,0,VALID,19.3323,VALID,66,VALID,0.847656,
2010-10-12, 03:38:04,VALID,916.101,VALID,0,VALID,96.5048,VALID,0,VALID,19.3323,VALID,66,VALID,0.979297,
2010-10-12, 03:39:04,VALID,916.102,VALID,0,VALID,96.4896,VALID,0,VALID,19.3128,VALID,107,VALID,0.704297,
2010-10-12, 03:40:04,VALID,916.118,VALID,0,VALID,96.4362,VALID,0,VALID,19.2918,VALID,107,VALID,0.935938,
2010-10-12, 03:41:04,VALID,916.095,VALID,0,VALID,96.4438,VALID,0,VALID,19.2933,VALID,107,VALID,0.657422,
2010-10-12, 03:42:04,VALID,916.098,VALID,0,VALID,96.3981,VALID,0,VALID,19.3128,VALID,107,VALID,0.360938,
2010-10-12, 03:43:04,VALID,916.107,VALID,0,VALID,96.3981,VALID,0,VALID,19.3128,VALID,107,VALID,0.435547,
2010-10-12, 03:44:04,VALID,916.125,VALID,0,VALID,96.3905,VALID,0,VALID,19.2933,VALID,107,VALID,0.312891,